Starlink 1736

operational
NORAD ID: 46585 Int'l Des: 2020-070 Owner: SPXS Country: US Constellation: starlink
LEOCIRCULAR

About Starlink 1736

Description loading...

Live Position

Loading 3D Globe...

Upcoming Passes

Altitude History

Altitude vs Time

uPlot chart will show altitude changes over time

Two-Line Element Set

1 46585U 20070BF 26062.48351592 .00098501 00000-0 96523-3 0 9991
2 46585 53.0442 146.4928 0001127 134.4394 225.6713 15.65335094299389
Epoch: Mar 3, 2026 • Age: 36 hours

Current Status

Altitude 372.5 km
Velocity 7.69 km/s
Sub-Earth Point 5.68°N, 161.22°E
Launch Date Oct 6, 2020
Age 5.4 years
Type internet

Technical Details

Classification Payload
Mass 260.00 kg
Dry Mass 248.00 kg
Total Mass 260.00 kg
Length 0.20 m
Diameter 2.80 m
Span 9.00 m
Shape Box + pan
Manufacturer SPXS
Bus Type Starlink
Phase Status In Orbit
Owner/State SPXS/US

Large Constellations

Loading constellations...